{"data":{"norad_id":49949,"epoch":"2026-05-25T04:10:32.416320Z","epoch_age_seconds":57018,"freshness":"FRESH","line1":"1 49949U 21120A   26145.17398630  .00023396  00000+0  39613-3 0  9993","line2":"2 49949  41.9940 186.2948 0011739  92.8269 267.3919 15.50968272251324","mean_motion":15.50968272,"eccentricity":0.0011739,"inclination_deg":41.994,"raan_deg":186.2948,"arg_perigee_deg":92.8269,"mean_anomaly_deg":267.3919,"bstar":0.00039613,"rev_number":25132,"period_min":92.845226172364,"perigee_km":405.92457595639,"apogee_km":421.87091513197,"semimajor_km":6792.0347455442,"source":"CELESTRAK","updated_at":"2026-05-25T13:37:57.276859Z"}}